Terug naar catalogus

STARLINK-31270

ActiefCommunicatieVLEO
NORAD 59154·PAYLOAD·🇺🇸 United States

Gelanceerd Mar 4, 2024 vanaf Cape Canaveral Space Force Station

Loading…

Volgende Passages (komende 24 uur)

TLE

VersSource: CelesTrak SupGP

Epoch: Sep 15, 2026, 01:46 UTC

1 59154C 24044C   26258.07409722  .00071327  00000+0  25832-2 0  2581
2 59154  42.9994 117.5741 0001485 275.2232 258.4040 15.27545753    18

Volg STARLINK-31270 in realtime met AllMySat

Download on the App Store